﻿,,Stage.Telemetry@S109B,Stage.Telemetry@S109B,Stage.Telemetry@S109B,Stage.Telemetry@S109B,Stage.Field Visits@S109B,Stage.Field Visits@S109B,Stage.Field Visits@S109B,Stage.Field Visits@S109B
mm/dd/yyyy,HH:MM:SS,ft,,,,ft,,,
Date,Time,Value,Grade,Approval,Interpolation Code,Value,Grade,Approval,Interpolation Code
06/07/2013,17:52:59,,,,,1.77,1,3,7
06/11/2013,14:48:59,,,,,1.78,0,3,7
06/13/2013,13:59:59,,,,1,,,,
06/13/2013,14:00:00,1.853,1,0,1,,,,
06/13/2013,14:15:00,1.858,1,0,1,,,,
06/13/2013,14:30:00,1.867,1,0,1,,,,
06/13/2013,14:45:00,1.874,1,0,1,,,,
06/13/2013,15:00:00,1.876,1,0,1,,,,
06/13/2013,15:15:00,1.88,1,0,1,,,,
06/13/2013,15:30:00,1.881,1,0,1,,,,
06/13/2013,15:45:00,1.878,1,0,1,,,,
06/13/2013,15:49:59,,,,,1.89,31,3,7
06/13/2013,16:00:00,1.873,1,0,1,,,,
06/13/2013,16:15:00,1.865,1,0,1,,,,
06/13/2013,16:30:00,1.859,1,0,1,,,,
06/13/2013,16:45:00,1.858,1,0,1,,,,
06/13/2013,17:00:00,1.855,1,0,1,,,,
06/13/2013,17:15:00,1.853,1,0,1,,,,
06/13/2013,17:30:00,1.852,1,0,1,,,,
06/13/2013,17:45:00,1.854,1,0,1,,,,
06/13/2013,18:00:00,1.856,1,0,1,,,,
06/13/2013,18:15:00,1.857,1,0,1,,,,
06/13/2013,18:30:00,1.857,1,0,1,,,,
06/13/2013,18:45:00,1.856,1,0,1,,,,
06/13/2013,19:00:00,1.854,1,0,1,,,,
06/13/2013,19:15:00,1.853,1,0,1,,,,
06/13/2013,19:30:00,1.849,1,0,1,,,,
06/13/2013,19:45:00,1.845,1,0,1,,,,
06/13/2013,20:00:00,1.842,1,0,1,,,,
06/13/2013,20:15:00,1.841,1,0,1,,,,
06/13/2013,20:30:00,1.843,1,0,1,,,,
06/13/2013,20:45:00,1.846,1,0,1,,,,
06/13/2013,21:00:00,1.85083333333302,1,0,1,,,,
06/13/2013,21:15:00,1.855,1,0,1,,,,
06/13/2013,21:30:00,1.856,1,0,1,,,,
06/13/2013,21:45:00,1.856,1,0,1,,,,
06/13/2013,22:00:00,1.855,1,0,1,,,,
06/13/2013,22:15:00,1.852,1,0,1,,,,
06/13/2013,22:30:00,1.85,1,0,1,,,,
06/13/2013,22:45:00,1.849,1,0,1,,,,
06/13/2013,23:00:00,1.84683333333247,1,0,1,,,,
06/13/2013,23:15:00,1.845,1,0,1,,,,
06/13/2013,23:30:00,1.845,1,0,1,,,,
06/13/2013,23:45:00,1.845,1,0,1,,,,
06/14/2013,00:00:00,1.845,1,0,1,,,,
06/14/2013,00:15:00,1.847,1,0,1,,,,
06/14/2013,00:30:00,1.85,1,0,1,,,,
06/14/2013,00:45:00,1.852,1,0,1,,,,
06/14/2013,01:00:00,1.854,1,0,1,,,,
06/14/2013,01:15:00,1.855,1,0,1,,,,
06/14/2013,01:30:00,1.856,1,0,1,,,,
06/14/2013,01:45:00,1.857,1,0,1,,,,
06/14/2013,02:00:00,1.85750000000015,1,0,1,,,,
06/14/2013,02:15:00,1.858,1,0,1,,,,
06/14/2013,02:30:00,1.859,1,0,1,,,,
06/14/2013,02:45:00,1.859,1,0,1,,,,
06/14/2013,03:00:00,1.8595,1,0,1,,,,
06/14/2013,03:15:00,1.86,1,0,1,,,,
06/14/2013,03:30:00,1.86,1,0,1,,,,
06/14/2013,03:45:00,1.86,1,0,1,,,,
06/14/2013,04:00:00,1.861,1,0,1,,,,
06/14/2013,04:15:00,1.862,1,0,1,,,,
06/14/2013,04:30:00,1.864,1,0,1,,,,
06/14/2013,04:45:00,1.865,1,0,1,,,,
06/14/2013,05:00:00,1.866,1,0,1,,,,
06/14/2013,05:15:00,1.867,1,0,1,,,,
06/14/2013,05:30:00,1.867,1,0,1,,,,
06/14/2013,05:45:00,1.868,1,0,1,,,,
06/14/2013,06:00:00,1.86816666666651,1,0,1,,,,
06/14/2013,06:15:00,1.868,1,0,1,,,,
06/14/2013,06:30:00,1.868,1,0,1,,,,
06/14/2013,06:45:00,1.868,1,0,1,,,,
06/14/2013,07:00:00,1.86933333333267,1,0,1,,,,
06/14/2013,07:15:00,1.871,1,0,1,,,,
06/14/2013,07:30:00,1.872,1,0,1,,,,
06/14/2013,07:45:00,1.872,1,0,1,,,,
06/14/2013,08:00:00,1.87283333333363,1,0,1,,,,
06/14/2013,08:15:00,1.874,1,0,1,,,,
06/14/2013,08:30:00,1.875,1,0,1,,,,
06/14/2013,08:45:00,1.878,1,0,1,,,,
06/14/2013,09:00:00,1.87716666666651,1,0,1,,,,
06/14/2013,09:15:00,1.876,1,0,1,,,,
06/14/2013,09:30:00,1.878,1,0,1,,,,
06/14/2013,09:45:00,1.881,1,0,1,,,,
06/14/2013,10:00:00,1.881,1,0,1,,,,
06/14/2013,10:15:00,1.883,1,0,1,,,,
06/14/2013,10:30:00,1.883,1,0,1,,,,
06/14/2013,10:45:00,1.883,1,0,1,,,,
06/14/2013,11:00:00,1.8841666666673,1,0,1,,,,
06/14/2013,11:15:00,1.884,1,0,1,,,,
06/14/2013,11:30:00,1.88,1,0,1,,,,
06/14/2013,11:45:00,1.873,1,0,1,,,,
06/14/2013,12:00:00,1.86616666666698,1,0,1,,,,
06/14/2013,12:15:00,1.86,1,0,1,,,,
06/14/2013,12:30:00,1.855,1,0,1,,,,
06/14/2013,12:45:00,1.851,1,0,1,,,,
06/14/2013,13:00:00,1.84716666666741,1,0,1,,,,
06/14/2013,13:15:00,1.845,1,0,1,,,,
06/14/2013,13:30:00,1.846,1,0,1,,,,
06/14/2013,13:45:00,1.845,1,0,1,,,,
06/14/2013,14:00:00,1.84199999999895,1,0,1,,,,
06/14/2013,14:15:00,1.838,1,0,1,,,,
06/14/2013,14:30:00,1.834,1,0,1,,,,
06/14/2013,14:45:00,1.833,1,0,1,,,,
06/14/2013,15:00:00,1.83566666666744,1,0,1,,,,
06/14/2013,15:15:00,1.84,1,0,1,,,,
06/14/2013,15:30:00,1.844,1,0,1,,,,
06/14/2013,15:45:00,1.846,1,0,1,,,,
06/14/2013,16:00:00,1.84683333333334,1,0,1,,,,
06/14/2013,16:15:00,1.847,1,0,1,,,,
06/14/2013,16:30:00,1.847,1,0,1,,,,
06/14/2013,16:45:00,1.848,1,0,1,,,,
06/14/2013,17:00:00,1.848,1,0,1,,,,
06/14/2013,17:15:00,1.847,1,0,1,,,,
06/14/2013,17:30:00,1.846,1,0,1,,,,
06/14/2013,17:45:00,1.846,1,0,1,,,,
06/14/2013,18:00:00,1.84533333333349,1,0,1,,,,
06/14/2013,18:15:00,1.845,1,0,1,,,,
06/14/2013,18:30:00,1.846,1,0,1,,,,
06/14/2013,18:45:00,1.845,1,0,1,,,,
06/14/2013,19:00:00,1.846,1,0,1,,,,
06/14/2013,19:15:00,1.845,1,0,1,,,,
06/14/2013,19:30:00,1.845,1,0,1,,,,
06/14/2013,19:45:00,1.845,1,0,1,,,,
06/14/2013,20:00:00,1.84566666666698,1,0,1,,,,
06/14/2013,20:15:00,1.846,1,0,1,,,,
06/14/2013,20:30:00,1.845,1,0,1,,,,
06/14/2013,20:45:00,1.844,1,0,1,,,,
06/14/2013,21:00:00,1.843,1,0,1,,,,
06/14/2013,21:15:00,1.843,1,0,1,,,,
06/14/2013,21:30:00,1.842,1,0,1,,,,
06/14/2013,21:45:00,1.84,1,0,1,,,,
06/14/2013,22:00:00,1.83966666666645,1,0,1,,,,
06/14/2013,22:15:00,1.84,1,0,1,,,,
06/14/2013,22:30:00,1.84,1,0,1,,,,
06/14/2013,22:45:00,1.839,1,0,1,,,,
06/14/2013,23:00:00,1.83716666666602,1,0,1,,,,
06/14/2013,23:15:00,1.835,1,0,1,,,,
06/14/2013,23:30:00,1.833,1,0,1,,,,
06/14/2013,23:45:00,1.832,1,0,1,,,,
06/15/2013,00:00:00,1.83116666666698,1,0,1,,,,
06/15/2013,00:15:00,1.831,1,0,1,,,,
06/15/2013,00:30:00,1.832,1,0,1,,,,
06/15/2013,00:45:00,1.833,1,0,1,,,,
06/15/2013,01:00:00,1.833,1,0,1,,,,
06/15/2013,01:15:00,1.833,1,0,1,,,,
06/15/2013,01:30:00,1.832,1,0,1,,,,
06/15/2013,01:45:00,1.831,1,0,1,,,,
06/15/2013,02:00:00,1.8303333333332,1,0,1,,,,
06/15/2013,02:15:00,1.829,1,0,1,,,,
06/15/2013,02:30:00,1.826,1,0,1,,,,
06/15/2013,02:45:00,1.823,1,0,1,,,,
06/15/2013,03:00:00,1.81783333333302,1,0,1,,,,
06/15/2013,03:15:00,1.812,1,0,1,,,,
06/15/2013,03:30:00,1.807,1,0,1,,,,
06/15/2013,03:45:00,1.803,1,0,1,,,,
06/15/2013,04:00:00,1.799,1,0,1,,,,
06/15/2013,04:15:00,1.795,1,0,1,,,,
06/15/2013,04:30:00,1.792,1,0,1,,,,
06/15/2013,04:45:00,1.791,1,0,1,,,,
06/15/2013,05:00:00,1.79083333333328,1,0,1,,,,
06/15/2013,05:15:00,1.791,1,0,1,,,,
06/15/2013,05:30:00,1.791,1,0,1,,,,
06/15/2013,05:45:00,1.792,1,0,1,,,,
06/15/2013,06:00:00,1.793,1,0,1,,,,
06/15/2013,06:15:00,1.794,1,0,1,,,,
06/15/2013,06:30:00,1.794,1,0,1,,,,
06/15/2013,06:45:00,1.794,1,0,1,,,,
06/15/2013,07:00:00,1.794,1,0,1,,,,
06/15/2013,07:15:00,1.794,1,0,1,,,,
06/15/2013,07:30:00,1.794,1,0,1,,,,
06/15/2013,07:45:00,1.795,1,0,1,,,,
06/15/2013,08:00:00,1.79650000000055,1,0,1,,,,
06/15/2013,08:15:00,1.798,1,0,1,,,,
06/15/2013,08:30:00,1.799,1,0,1,,,,
06/15/2013,08:45:00,1.801,1,0,1,,,,
06/15/2013,09:00:00,1.8045,1,0,1,,,,
06/15/2013,09:15:00,1.808,1,0,1,,,,
06/15/2013,09:30:00,1.81,1,0,1,,,,
06/15/2013,09:45:00,1.813,1,0,1,,,,
06/15/2013,10:00:00,1.814,1,0,1,,,,
06/15/2013,10:15:00,1.816,1,0,1,,,,
06/15/2013,10:30:00,1.818,1,0,1,,,,
06/15/2013,10:45:00,1.822,1,0,1,,,,
06/15/2013,11:00:00,1.82733333333512,1,0,1,,,,
06/15/2013,11:15:00,1.834,1,0,1,,,,
06/15/2013,11:30:00,1.842,1,0,1,,,,
06/15/2013,11:45:00,1.847,1,0,1,,,,
06/15/2013,12:00:00,1.85099999999907,1,0,1,,,,
06/15/2013,12:15:00,1.853,1,0,1,,,,
06/15/2013,12:30:00,1.852,1,0,1,,,,
06/15/2013,12:45:00,1.848,1,0,1,,,,
06/15/2013,13:00:00,1.8418333333355,1,0,1,,,,
06/15/2013,13:15:00,1.836,1,0,1,,,,
06/15/2013,13:30:00,1.833,1,0,1,,,,
06/15/2013,13:45:00,1.83,1,0,1,,,,
06/15/2013,14:00:00,1.82816666666602,1,0,1,,,,
06/15/2013,14:15:00,1.827,1,0,1,,,,
06/15/2013,14:30:00,1.826,1,0,1,,,,
06/15/2013,14:45:00,1.825,1,0,1,,,,
06/15/2013,15:00:00,1.82583333333349,1,0,1,,,,
06/15/2013,15:15:00,1.827,1,0,1,,,,
06/15/2013,15:30:00,1.827,1,0,1,,,,
06/15/2013,15:45:00,1.828,1,0,1,,,,
06/15/2013,16:00:00,1.82999999999889,1,0,1,,,,
06/15/2013,16:15:00,1.833,1,0,1,,,,
06/15/2013,16:30:00,1.837,1,0,1,,,,
06/15/2013,16:45:00,1.84,1,0,1,,,,
06/15/2013,17:00:00,1.8418333333341,1,0,1,,,,
06/15/2013,17:15:00,1.842,1,0,1,,,,
06/15/2013,17:30:00,1.84,1,0,1,,,,
06/15/2013,17:45:00,1.839,1,0,1,,,,
06/15/2013,18:00:00,1.83783333333302,1,0,1,,,,
06/15/2013,18:15:00,1.836,1,0,1,,,,
06/15/2013,18:30:00,1.833,1,0,1,,,,
06/15/2013,18:45:00,1.83,1,0,1,,,,
06/15/2013,19:00:00,1.828,1,0,1,,,,
06/15/2013,19:15:00,1.826,1,0,1,,,,
06/15/2013,19:30:00,1.825,1,0,1,,,,
06/15/2013,19:45:00,1.824,1,0,1,,,,
06/15/2013,20:00:00,1.82316666666642,1,0,1,,,,
06/15/2013,20:15:00,1.822,1,0,1,,,,
06/15/2013,20:30:00,1.82,1,0,1,,,,
06/15/2013,20:45:00,1.819,1,0,1,,,,
06/15/2013,21:00:00,1.81766666666651,1,0,1,,,,
06/15/2013,21:15:00,1.816,1,0,1,,,,
06/15/2013,21:30:00,1.814,1,0,1,,,,
06/15/2013,21:45:00,1.811,1,0,1,,,,
06/15/2013,22:00:00,1.80783333333433,1,0,1,,,,
06/15/2013,22:15:00,1.805,1,0,1,,,,
06/15/2013,22:30:00,1.803,1,0,1,,,,
06/15/2013,22:45:00,1.8,1,0,1,,,,
06/15/2013,23:00:00,1.79916666666642,1,0,1,,,,
06/15/2013,23:15:00,1.799,1,0,1,,,,
06/15/2013,23:30:00,1.798,1,0,1,,,,
06/15/2013,23:45:00,1.796,1,0,1,,,,
06/16/2013,00:00:00,1.79433333333349,1,0,1,,,,
06/16/2013,00:15:00,1.793,1,0,1,,,,
06/16/2013,00:30:00,1.792,1,0,1,,,,
06/16/2013,00:45:00,1.791,1,0,1,,,,
06/16/2013,01:00:00,1.791,1,0,1,,,,
06/16/2013,01:15:00,1.791,1,0,1,,,,
06/16/2013,01:30:00,1.791,1,0,1,,,,
06/16/2013,01:45:00,1.791,1,0,1,,,,
06/16/2013,02:00:00,1.791,1,0,1,,,,
06/16/2013,02:15:00,1.791,1,0,1,,,,
06/16/2013,02:30:00,1.791,1,0,1,,,,
06/16/2013,02:45:00,1.79,1,0,1,,,,
06/16/2013,03:00:00,1.78883333333302,1,0,1,,,,
06/16/2013,03:15:00,1.787,1,0,1,,,,
06/16/2013,03:30:00,1.784,1,0,1,,,,
06/16/2013,03:45:00,1.782,1,0,1,,,,
06/16/2013,04:00:00,1.7800000000007,1,0,1,,,,
06/16/2013,04:15:00,1.778,1,0,1,,,,
06/16/2013,04:30:00,1.776,1,0,1,,,,
06/16/2013,04:45:00,1.774,1,0,1,,,,
06/16/2013,05:00:00,1.77266666666616,1,0,1,,,,
06/16/2013,05:15:00,1.772,1,0,1,,,,
06/16/2013,05:30:00,1.772,1,0,1,,,,
06/16/2013,05:45:00,1.772,1,0,1,,,,
06/16/2013,06:00:00,1.77233333333349,1,0,1,,,,
06/16/2013,06:15:00,1.773,1,0,1,,,,
06/16/2013,06:30:00,1.774,1,0,1,,,,
06/16/2013,06:45:00,1.775,1,0,1,,,,
06/16/2013,07:00:00,1.77549999999985,1,0,1,,,,
06/16/2013,07:15:00,1.776,1,0,1,,,,
06/16/2013,07:30:00,1.777,1,0,1,,,,
06/16/2013,07:45:00,1.778,1,0,1,,,,
06/16/2013,08:00:00,1.77816666666672,1,0,1,,,,
06/16/2013,08:15:00,1.778,1,0,1,,,,
06/16/2013,08:30:00,1.778,1,0,1,,,,
06/16/2013,08:45:00,1.779,1,0,1,,,,
06/16/2013,09:00:00,1.78,1,0,1,,,,
06/16/2013,09:15:00,1.782,1,0,1,,,,
06/16/2013,09:30:00,1.784,1,0,1,,,,
06/16/2013,09:45:00,1.785,1,0,1,,,,
06/16/2013,10:00:00,1.78666666666581,1,0,1,,,,
06/16/2013,10:15:00,1.789,1,0,1,,,,
06/16/2013,10:30:00,1.792,1,0,1,,,,
06/16/2013,10:45:00,1.797,1,0,1,,,,
06/16/2013,11:00:00,1.80083333333468,1,0,1,,,,
06/16/2013,11:15:00,1.804,1,0,1,,,,
06/16/2013,11:30:00,1.807,1,0,1,,,,
06/16/2013,11:45:00,1.809,1,0,1,,,,
06/16/2013,12:00:00,1.81116666666651,1,0,1,,,,
06/16/2013,12:15:00,1.813,1,0,1,,,,
06/16/2013,12:30:00,1.814,1,0,1,,,,
06/16/2013,12:45:00,1.814,1,0,1,,,,
06/16/2013,13:00:00,1.81150000000102,1,0,1,,,,
06/16/2013,13:15:00,1.809,1,0,1,,,,
06/16/2013,13:30:00,1.809,1,0,1,,,,
06/16/2013,13:45:00,1.803,1,0,1,,,,
06/16/2013,14:00:00,1.797,1,0,1,,,,
06/16/2013,14:15:00,1.793,1,0,1,,,,
06/16/2013,14:30:00,1.791,1,0,1,,,,
06/16/2013,14:45:00,1.789,1,0,1,,,,
06/16/2013,15:00:00,1.788,1,0,1,,,,
06/16/2013,15:15:00,1.787,1,0,1,,,,
06/16/2013,15:30:00,1.785,1,0,1,,,,
06/16/2013,15:45:00,1.785,1,0,1,,,,
06/16/2013,16:00:00,1.78566666666616,1,0,1,,,,
06/16/2013,16:15:00,1.787,1,0,1,,,,
06/16/2013,16:30:00,1.789,1,0,1,,,,
06/16/2013,16:45:00,1.791,1,0,1,,,,
06/16/2013,17:00:00,1.79183333333363,1,0,1,,,,
06/16/2013,17:15:00,1.792,1,0,1,,,,
06/16/2013,17:30:00,1.792,1,0,1,,,,
06/16/2013,17:45:00,1.792,1,0,1,,,,
06/16/2013,18:00:00,1.7915,1,0,1,,,,
06/16/2013,18:15:00,1.791,1,0,1,,,,
06/16/2013,18:30:00,1.791,1,0,1,,,,
06/16/2013,18:45:00,1.789,1,0,1,,,,
06/16/2013,19:00:00,1.787,1,0,1,,,,
06/16/2013,19:15:00,1.784,1,0,1,,,,
06/16/2013,19:30:00,1.78,1,0,1,,,,
06/16/2013,19:45:00,1.778,1,0,1,,,,
06/16/2013,20:00:00,1.77499999999889,1,0,1,,,,
06/16/2013,20:15:00,1.772,1,0,1,,,,
06/16/2013,20:30:00,1.77,1,0,1,,,,
06/16/2013,20:45:00,1.768,1,0,1,,,,
06/16/2013,21:00:00,1.76666666666698,1,0,1,,,,
06/16/2013,21:15:00,1.766,1,0,1,,,,
06/16/2013,21:30:00,1.766,1,0,1,,,,
06/16/2013,21:45:00,1.765,1,0,1,,,,
06/16/2013,22:00:00,1.76683333333171,1,0,1,,,,
06/16/2013,22:15:00,1.771,1,0,1,,,,
06/16/2013,22:30:00,1.777,1,0,1,,,,
06/16/2013,22:45:00,1.779,1,0,1,,,,
06/16/2013,23:00:00,1.78083333333393,1,0,1,,,,
06/16/2013,23:15:00,1.783,1,0,1,,,,
06/16/2013,23:30:00,1.786,1,0,1,,,,
06/16/2013,23:45:00,1.788,1,0,1,,,,
06/17/2013,00:00:00,1.79183333333349,1,0,1,,,,
06/17/2013,00:15:00,1.796,1,0,1,,,,
06/17/2013,00:30:00,1.799,1,0,1,,,,
06/17/2013,00:45:00,1.802,1,0,1,,,,
06/17/2013,01:00:00,1.8049999999993,1,0,1,,,,
06/17/2013,01:15:00,1.807,1,0,1,,,,
06/17/2013,01:30:00,1.807,1,0,1,,,,
06/17/2013,01:45:00,1.808,1,0,1,,,,
06/17/2013,02:00:00,1.809,1,0,1,,,,
06/17/2013,02:15:00,1.81,1,0,1,,,,
06/17/2013,02:30:00,1.811,1,0,1,,,,
06/17/2013,02:45:00,1.811,1,0,1,,,,
06/17/2013,03:00:00,1.812,1,0,1,,,,
06/17/2013,03:15:00,1.813,1,0,1,,,,
06/17/2013,03:30:00,1.813,1,0,1,,,,
06/17/2013,03:45:00,1.813,1,0,1,,,,
06/17/2013,04:00:00,1.813,1,0,1,,,,
06/17/2013,04:15:00,1.813,1,0,1,,,,
06/17/2013,04:30:00,1.813,1,0,1,,,,
06/17/2013,04:45:00,1.814,1,0,1,,,,
06/17/2013,05:00:00,1.815,1,0,1,,,,
06/17/2013,05:15:00,1.815,1,0,1,,,,
06/17/2013,05:30:00,1.816,1,0,1,,,,
06/17/2013,05:45:00,1.816,1,0,1,,,,
06/17/2013,06:00:00,1.81733333333256,1,0,1,,,,
06/17/2013,06:15:00,1.817,1,0,1,,,,
06/17/2013,06:30:00,1.812,1,0,1,,,,
06/17/2013,06:45:00,1.804,1,0,1,,,,
06/17/2013,07:00:00,1.79900000000017,1,0,1,,,,
06/17/2013,07:15:00,1.798,1,0,1,,,,
06/17/2013,07:30:00,1.802,1,0,1,,,,
06/17/2013,07:45:00,1.806,1,0,1,,,,
06/17/2013,08:00:00,1.80933333333454,1,0,1,,,,
06/17/2013,08:15:00,1.812,1,0,1,,,,
06/17/2013,08:30:00,1.814,1,0,1,,,,
06/17/2013,08:45:00,1.816,1,0,1,,,,
06/17/2013,09:00:00,1.81816666666651,1,0,1,,,,
06/17/2013,09:15:00,1.82,1,0,1,,,,
06/17/2013,09:30:00,1.821,1,0,1,,,,
06/17/2013,09:45:00,1.819,1,0,1,,,,
06/17/2013,10:00:00,1.8165000000009,1,0,1,,,,
06/17/2013,10:15:00,1.814,1,0,1,,,,
06/17/2013,10:30:00,1.812,1,0,1,,,,
06/17/2013,10:45:00,1.811,1,0,1,,,,
06/17/2013,11:00:00,1.81016666666631,1,0,1,,,,
06/17/2013,11:15:00,1.81,1,0,1,,,,
06/17/2013,11:30:00,1.811,1,0,1,,,,
06/17/2013,11:45:00,1.814,1,0,1,,,,
06/17/2013,12:00:00,1.8175,1,0,1,,,,
06/17/2013,12:15:00,1.821,1,0,1,,,,
06/17/2013,12:30:00,1.824,1,0,1,,,,
06/17/2013,12:45:00,1.826,1,0,1,,,,
06/17/2013,12:52:00,,,,,1.84,31,3,7
06/17/2013,13:00:00,1.82616666666718,1,0,1,,,,
06/17/2013,13:15:00,1.825,1,0,1,,,,
06/17/2013,13:30:00,1.823,1,0,1,,,,
06/17/2013,13:45:00,1.821,1,0,1,,,,
06/17/2013,14:00:00,1.81983333333294,1,0,1,,,,
06/17/2013,14:15:00,1.819,1,0,1,,,,
06/17/2013,14:30:00,1.818,1,0,1,,,,
06/17/2013,14:45:00,1.818,1,0,1,,,,
06/17/2013,15:00:00,1.819,1,0,1,,,,
06/17/2013,15:15:00,1.82,1,0,1,,,,
06/17/2013,15:30:00,1.82,1,0,1,,,,
06/17/2013,15:45:00,1.821,1,0,1,,,,
06/17/2013,16:00:00,1.826,1,0,1,,,,
06/17/2013,16:15:00,1.836,1,0,1,,,,
06/17/2013,16:30:00,1.837,1,0,1,,,,
06/17/2013,16:45:00,1.834,1,0,1,,,,
06/17/2013,17:00:00,1.833,1,0,1,,,,
06/17/2013,17:15:00,1.832,1,0,1,,,,
06/17/2013,17:30:00,1.83,1,0,1,,,,
06/17/2013,17:45:00,1.828,1,0,1,,,,
06/17/2013,18:00:00,1.82583333333349,1,0,1,,,,
06/17/2013,18:15:00,1.824,1,0,1,,,,
06/17/2013,18:30:00,1.823,1,0,1,,,,
06/17/2013,18:45:00,1.82,1,0,1,,,,
06/17/2013,19:00:00,1.81616666666817,1,0,1,,,,
06/17/2013,19:15:00,1.812,1,0,1,,,,
06/17/2013,19:30:00,1.808,1,0,1,,,,
06/17/2013,19:45:00,1.805,1,0,1,,,,
06/17/2013,20:00:00,1.80199999999895,1,0,1,,,,
06/17/2013,20:15:00,1.799,1,0,1,,,,
06/17/2013,20:30:00,1.796,1,0,1,,,,
06/17/2013,20:45:00,1.793,1,0,1,,,,
06/17/2013,21:00:00,1.79,1,0,1,,,,
06/17/2013,21:15:00,1.787,1,0,1,,,,
06/17/2013,21:30:00,1.784,1,0,1,,,,
06/17/2013,21:45:00,1.782,1,0,1,,,,
06/17/2013,22:00:00,1.78299999999878,1,0,1,,,,
06/17/2013,22:15:00,1.786,1,0,1,,,,
06/17/2013,22:30:00,1.79,1,0,1,,,,
06/17/2013,22:45:00,1.793,1,0,1,,,,
06/17/2013,23:00:00,1.79450000000055,1,0,1,,,,
06/17/2013,23:15:00,1.795,1,0,1,,,,
06/17/2013,23:30:00,1.795,1,0,1,,,,
06/17/2013,23:45:00,1.794,1,0,1,,,,
06/18/2013,00:00:00,1.7925,1,0,1,,,,
06/18/2013,00:15:00,1.791,1,0,1,,,,
06/18/2013,00:30:00,1.79,1,0,1,,,,
06/18/2013,00:45:00,1.788,1,0,1,,,,
06/18/2013,01:00:00,1.787,1,0,1,,,,
06/18/2013,01:15:00,1.787,1,0,1,,,,
06/18/2013,01:30:00,1.787,1,0,1,,,,
06/18/2013,01:45:00,1.787,1,0,1,,,,
06/18/2013,02:00:00,1.788,1,0,1,,,,
06/18/2013,02:15:00,1.789,1,0,1,,,,
06/18/2013,02:30:00,1.79,1,0,1,,,,
06/18/2013,02:45:00,1.791,1,0,1,,,,
06/18/2013,03:00:00,1.793,1,0,1,,,,
06/18/2013,03:15:00,1.794,1,0,1,,,,
06/18/2013,03:30:00,1.796,1,0,1,,,,
06/18/2013,03:45:00,1.797,1,0,1,,,,
06/18/2013,04:00:00,1.79799999999965,1,0,1,,,,
06/18/2013,04:15:00,1.799,1,0,1,,,,
06/18/2013,04:30:00,1.8,1,0,1,,,,
06/18/2013,04:45:00,1.801,1,0,1,,,,
06/18/2013,05:00:00,1.8,1,0,1,,,,
06/18/2013,05:15:00,1.8,1,0,1,,,,
06/18/2013,05:30:00,1.799,1,0,1,,,,
06/18/2013,05:45:00,1.8,1,0,1,,,,
06/18/2013,06:00:00,1.80066666666651,1,0,1,,,,
06/18/2013,06:15:00,1.801,1,0,1,,,,
06/18/2013,06:30:00,1.801,1,0,1,,,,
06/18/2013,06:45:00,1.802,1,0,1,,,,
06/18/2013,07:00:00,1.803,1,0,1,,,,
06/18/2013,07:15:00,1.804,1,0,1,,,,
06/18/2013,07:30:00,1.804,1,0,1,,,,
06/18/2013,07:45:00,1.805,1,0,1,,,,
06/18/2013,08:00:00,1.805,1,0,1,,,,
06/18/2013,08:15:00,1.807,1,0,1,,,,
06/18/2013,08:30:00,1.812,1,0,1,,,,
06/18/2013,08:45:00,1.82,1,0,1,,,,
06/18/2013,09:00:00,1.82733333333302,1,0,1,,,,
06/18/2013,09:15:00,1.834,1,0,1,,,,
06/18/2013,09:30:00,1.84,1,0,1,,,,
06/18/2013,09:45:00,1.846,1,0,1,,,,
06/18/2013,10:00:00,1.85049999999887,1,0,1,,,,
06/18/2013,10:15:00,1.854,1,0,1,,,,
06/18/2013,10:30:00,1.857,1,0,1,,,,
06/18/2013,10:45:00,1.861,1,0,1,,,,
06/18/2013,11:00:00,1.864,1,0,1,,,,
06/18/2013,11:15:00,1.867,1,0,1,,,,
06/18/2013,11:30:00,1.87,1,0,1,,,,
06/18/2013,11:45:00,1.869,1,0,1,,,,
06/18/2013,12:00:00,1.866,1,0,1,,,,
06/18/2013,12:15:00,1.863,1,0,1,,,,
06/18/2013,12:30:00,1.865,1,0,1,,,,
06/18/2013,12:45:00,1.881,1,0,1,,,,
06/18/2013,13:00:00,1.87566666667128,1,0,1,,,,
06/18/2013,13:15:00,1.866,1,0,1,,,,
06/18/2013,13:30:00,1.869,1,0,1,,,,
06/18/2013,13:45:00,1.873,1,0,1,,,,
06/18/2013,14:00:00,1.877,1,0,1,,,,
06/18/2013,14:15:00,1.881,1,0,1,,,,
06/18/2013,14:30:00,1.885,1,0,1,,,,
06/18/2013,14:45:00,1.888,1,0,1,,,,
06/18/2013,15:00:00,1.891,1,0,1,,,,
06/18/2013,15:15:00,1.893,1,0,1,,,,
06/18/2013,15:30:00,1.892,1,0,1,,,,
06/18/2013,15:45:00,1.888,1,0,1,,,,
06/18/2013,16:00:00,1.885,1,0,1,,,,
06/18/2013,16:15:00,1.885,1,0,1,,,,
06/18/2013,16:30:00,1.887,1,0,1,,,,
06/18/2013,16:45:00,1.889,1,0,1,,,,
06/18/2013,17:00:00,1.89316666666817,1,0,1,,,,
06/18/2013,17:15:00,1.898,1,0,1,,,,
06/18/2013,17:30:00,1.902,1,0,1,,,,
06/18/2013,17:45:00,1.904,1,0,1,,,,
06/18/2013,18:00:00,1.90466666666651,1,0,1,,,,
06/18/2013,18:15:00,1.905,1,0,1,,,,
06/18/2013,18:30:00,1.906,1,0,1,,,,
06/18/2013,18:45:00,1.907,1,0,1,,,,
06/18/2013,19:00:00,1.90833333333273,1,0,1,,,,
06/18/2013,19:15:00,1.91,1,0,1,,,,
06/18/2013,19:30:00,1.912,1,0,1,,,,
06/18/2013,19:45:00,1.914,1,0,1,,,,
06/18/2013,20:00:00,1.916,1,0,1,,,,
06/18/2013,20:15:00,1.916,1,0,1,,,,
06/18/2013,20:30:00,1.917,1,0,1,,,,
06/18/2013,20:45:00,1.917,1,0,1,,,,
06/18/2013,21:00:00,1.91666666666651,1,0,1,,,,
06/18/2013,21:15:00,1.916,1,0,1,,,,
06/18/2013,21:30:00,1.915,1,0,1,,,,
06/18/2013,21:45:00,1.916,1,0,1,,,,
06/18/2013,22:00:00,1.91616666666677,1,0,1,,,,
06/18/2013,22:15:00,1.916,1,0,1,,,,
06/18/2013,22:30:00,1.916,1,0,1,,,,
06/18/2013,22:45:00,1.914,1,0,1,,,,
06/18/2013,23:00:00,1.912,1,0,1,,,,
06/18/2013,23:15:00,1.91,1,0,1,,,,
06/18/2013,23:30:00,1.909,1,0,1,,,,
06/18/2013,23:45:00,1.909,1,0,1,,,,
06/19/2013,00:00:00,1.90983333333349,1,0,1,,,,
06/19/2013,00:15:00,1.911,1,0,1,,,,
06/19/2013,00:30:00,1.912,1,0,1,,,,
06/19/2013,00:45:00,1.914,1,0,1,,,,
06/19/2013,01:00:00,1.91499999999971,1,0,1,,,,
06/19/2013,01:15:00,1.916,1,0,1,,,,
06/19/2013,01:30:00,1.918,1,0,1,,,,
06/19/2013,01:45:00,1.919,1,0,1,,,,
06/19/2013,02:00:00,1.92166666666773,1,0,1,,,,
06/19/2013,02:15:00,1.924,1,0,1,,,,
06/19/2013,02:30:00,1.924,1,0,1,,,,
06/19/2013,02:45:00,1.926,1,0,1,,,,
06/19/2013,03:00:00,1.9275,1,0,1,,,,
06/19/2013,03:15:00,1.929,1,0,1,,,,
06/19/2013,03:30:00,1.931,1,0,1,,,,
06/19/2013,03:45:00,1.931,1,0,1,,,,
06/19/2013,04:00:00,1.93216666666596,1,0,1,,,,
06/19/2013,04:15:00,1.934,1,0,1,,,,
06/19/2013,04:30:00,1.936,1,0,1,,,,
06/19/2013,04:45:00,1.937,1,0,1,,,,
06/19/2013,05:00:00,1.93850000000055,1,0,1,,,,
06/19/2013,05:15:00,1.94,1,0,1,,,,
06/19/2013,05:30:00,1.941,1,0,1,,,,
06/19/2013,05:45:00,1.943,1,0,1,,,,
06/19/2013,06:00:00,1.94433333333349,1,0,1,,,,
06/19/2013,06:15:00,1.946,1,0,1,,,,
06/19/2013,06:30:00,1.949,1,0,1,,,,
06/19/2013,06:45:00,1.951,1,0,1,,,,
06/19/2013,07:00:00,1.95233333333279,1,0,1,,,,
06/19/2013,07:15:00,1.954,1,0,1,,,,
06/19/2013,07:30:00,1.957,1,0,1,,,,
06/19/2013,07:45:00,1.962,1,0,1,,,,
06/19/2013,08:00:00,1.969,1,0,1,,,,
06/19/2013,08:15:00,1.973,1,0,1,,,,
06/19/2013,08:30:00,1.963,1,0,1,,,,
06/19/2013,08:45:00,1.957,1,0,1,,,,
06/19/2013,09:00:00,1.964,1,0,1,,,,
06/19/2013,09:15:00,1.972,1,0,1,,,,
06/19/2013,09:30:00,1.981,1,0,1,,,,
06/19/2013,09:45:00,1.989,1,0,1,,,,
06/19/2013,10:00:00,1.99483333333166,1,0,1,,,,
06/19/2013,10:15:00,2,1,0,1,,,,
06/19/2013,10:30:00,2.006,1,0,1,,,,
06/19/2013,10:45:00,2.012,1,0,1,,,,
06/19/2013,11:00:00,2.01633333333471,1,0,1,,,,
06/19/2013,11:15:00,2.021,1,0,1,,,,
06/19/2013,11:30:00,2.028,1,0,1,,,,
06/19/2013,11:45:00,2.035,1,0,1,,,,
06/19/2013,12:00:00,2.03916666666651,1,0,1,,,,
06/19/2013,12:15:00,2.043,1,0,1,,,,
06/19/2013,12:30:00,2.049,1,0,1,,,,
06/19/2013,12:45:00,2.056,1,0,1,,,,
06/19/2013,13:00:00,2.066,1,0,1,,,,
06/19/2013,13:15:00,2.075,1,0,1,,,,
06/19/2013,13:30:00,2.089,1,0,1,,,,
06/19/2013,13:45:00,2.106,1,0,1,,,,
06/19/2013,14:00:00,2.1278333333412,1,0,1,,,,
06/19/2013,14:15:00,2.15,1,0,1,,,,
06/19/2013,14:30:00,2.168,1,0,1,,,,
06/19/2013,14:45:00,2.183,1,0,1,,,,
06/19/2013,15:00:00,2.19549999999953,1,0,1,,,,
06/19/2013,15:15:00,2.207,1,0,1,,,,
06/19/2013,15:30:00,2.219,1,0,1,,,,
06/19/2013,15:45:00,2.233,1,0,1,,,,
06/19/2013,16:00:00,2.24666666666168,1,0,1,,,,
06/19/2013,16:15:00,2.261,1,0,1,,,,
06/19/2013,16:30:00,2.277,1,0,1,,,,
06/19/2013,16:45:00,2.297,1,0,1,,,,
06/19/2013,17:00:00,2.3203333333421,1,0,1,,,,
06/19/2013,17:15:00,2.34,1,0,1,,,,
06/19/2013,17:30:00,2.349,1,0,1,,,,
06/19/2013,17:45:00,2.345,1,0,1,,,,
06/19/2013,18:00:00,2.3444999999986,1,0,1,,,,
06/19/2013,18:15:00,2.341,1,0,1,,,,
06/19/2013,18:30:00,2.328,1,0,1,,,,
06/19/2013,18:45:00,2.317,1,0,1,,,,
06/19/2013,19:00:00,2.31200000000035,1,0,1,,,,
06/19/2013,19:15:00,2.31,1,0,1,,,,
06/19/2013,19:30:00,2.308,1,0,1,,,,
06/19/2013,19:45:00,2.306,1,0,1,,,,
06/19/2013,20:00:00,2.30750000000061,1,0,1,,,,
06/19/2013,20:15:00,2.31,1,0,1,,,,
06/19/2013,20:30:00,2.311,1,0,1,,,,
06/19/2013,20:45:00,2.314,1,0,1,,,,
06/19/2013,21:00:00,2.315,1,0,1,,,,
06/19/2013,21:15:00,2.319,1,0,1,,,,
06/19/2013,21:30:00,2.318,1,0,1,,,,
06/19/2013,21:45:00,2.32,1,0,1,,,,
06/19/2013,22:00:00,2.32483333333032,1,0,1,,,,